sat.trackr.live / text

‹ back to catalog

STARLINK-37318

NORAD 68712 · 2026-081P

PAYLOAD ACTIVE UNKNOWN

§ Identity

Operator
Country
US
Launch date
2026-04-14
Launch site
AFETR
Launch vehicle
Mass (kg)
RCS (m²)

Purposes: comms

External: N2YO · Heavens-Above · Gunter

§ Orbital elements

Epoch: 2026-09-19T22:50:00.172032Z

Period
93.85 min
Inclination
53.1577°
Eccentricity
0.0002385
Mean motion
15.34406333 rev/d
Perigee alt
461.1 km
Apogee alt
464.3 km
Semi-major
6,840.8 km
B*
5.9814e-4
RAAN
208.3315°
Arg perigee
72.8120°
Mean anomaly
287.3144°
Rev number
2,453

§ Raw data

STARLINK-373181 68712U 26081P   26262.95139088  .00019891  00000+0  59814-3 0  99992 68712  53.1577 208.3315 0002385  72.8120 287.3144 15.34406333 24539

JSON: /api/v1/satellites/68712 · /tle

For live sub-satellite position, see the globe view (requires WebGL).

§ Visibility from observer

Set your observer location to see the next 7 days of passes ≥ 10°. The values pass through the URL so the page stays shareable.

No JS? Fill the form by hand. The geolocation button needs JavaScript.